Погода в Марсе

Россия / Воронежская область     50°21′51″N   39°38′54″E
темп.,
°C
ветер,
м/с
пор.,
м/с
влажн.,
%
обл.,
%
осадки,
мм/ч
давл.,
гПа
погр.,
м
9 мая, вс
вс900:00+12з4893100 0.2 1008440
03:00+7зсз61291100 0.4 1010531
06:00+5зсз61189100 1.0 1012696
09:00+6сз6981100 1.3 1014938
12:00+8сз81172100 0.1 10151157
15:00+8сз71167100 0.1 10171342
18:00+9сз61067100 0.1 10181261
21:00+7ссз51173100 0.1 1020714
10 мая, пн
пн1000:00+6сз51276100 0.0 1020478
03:00+5сз61379100 0.0 1021544
06:00+6ссз71678100 0.0 10211132
09:00+9с91566100 0.0 10201314
12:00+11с91566100 0.0 10181345
15:00+8с111884100 0.8 1018860
18:00+8с102093100 3.3 1016760
21:00+9ссв112093100 4.9 1016723
11 мая, вт
вт1100:00+10ссв101992100 0.3 1015679
03:00+10св81695100 1.1 1015784
06:00+7всв41097100 6.3 1017542
09:00+10в81176100 6.8 10191227
12:00+12в91261100 0.1 10201691
15:00+11вюв91268100 0.2 10231499
18:00+12в68704 0.0 10231005
21:00+8всв3685100 0.0 102396
12 мая, ср
ср1200:00+9в3984100 0.0 1022234
03:00+8вюв239084 0.0 102164
06:00+8в36905 0.0 1022161
09:00+14в68641 0.0 1021699
12:00+17вюв7851100 0.0 10212037
15:00+18вюв6749100 0.0 10202037
18:00+16вюв4864100 0.0 1019350
21:00+13в2376100 0.0 101841
13 мая, чт
чт1300:00+10вюв118233 0.0 101810
03:00+9в11835 0.0 101710
06:00+11вюв11795 0.0 101718
09:00+17ююв345921 0.0 1017563
12:00+21юв454886 0.0 10171427
15:00+22юв564776 0.0 10161524
18:00+20юв376279 0.0 1016289
21:00+15юв3378100 0.0 101723